Location: Oberwangen
(47.4286°N, 8.9679°E)
Time: 05:48:13
(UTC+00:00)

ATLAS CENTAUR R/B - Pass Details

Date: 20 June 2021
Orbit: 472 x 671 km, 64.6° (Epoch: 13 June)

Event Time Altitude Azimuth Distance (km) Brightness Sun altitude
Rises 21:46:21 0° 310° (NW) 2,819 6.1 -15.7°
Reaches altitude 10° 21:48:58 10° 294° (WNW) 1,952 4.8 -15.8°
Maximum altitude 21:52:17 21° 246° (WSW) 1,402 3.3 -16.1°
Enters shadow 21:54:30 15° 209° (SSW) 1,695 3.4 -16.2°
